sat.trackr.live / text

‹ back to catalog

STARLINK-11387 [DTC]

NORAD 62090 · 2024-220C

PAYLOAD ACTIVE UNKNOWN

§ Identity

Operator
Country
US
Launch date
2024-11-25
Launch site
AFETR
Launch vehicle
Mass (kg)
RCS (m²)

Purposes: comms

External: N2YO · Heavens-Above · Gunter

§ Orbital elements

Epoch: 2026-09-21T03:55:32.951712Z

Period
91.67 min
Inclination
42.9991°
Eccentricity
0.0001133
Mean motion
15.70902067 rev/d
Perigee alt
355.6 km
Apogee alt
357.1 km
Semi-major
6,734.5 km
B*
1.1651e-3
RAAN
305.0453°
Arg perigee
250.8807°
Mean anomaly
109.1938°
Rev number
10,579

§ Raw data

STARLINK-11387 [DTC]1 62090U 24220C   26264.16357583  .00152214  00000+0  11651-2 0  99952 62090  42.9991 305.0453 0001133 250.8807 109.1938 15.70902067105791

JSON: /api/v1/satellites/62090 · /tle

For live sub-satellite position, see the globe view (requires WebGL).

§ Visibility from observer

Set your observer location to see the next 7 days of passes ≥ 10°. The values pass through the URL so the page stays shareable.

No JS? Fill the form by hand. The geolocation button needs JavaScript.